Location: Cicognara
(44.9500°N, 10.4667°E)
Time: 09:27:25
(UTC+00:00)

Meteor 2-1 Rocket - Visible Passes

Search period start: 28 October 2021 00:00
Search period end: 07 November 2021 00:00
Orbit: 829 x 907 km, 81.3° (Epoch: 27 October)

Date Brightness Start Highest point End Pass type
(mag) Time Alt. Az. Time Alt. Az. Time Alt. Az.
28 Oct 6.7 04:13:48 10° NNE 04:18:01 22° ENE 04:22:14 10° ESE visible
28 Oct 5.1 17:28:34 10° SE 17:32:55 24° E 17:37:13 10° NE visible
28 Oct 5.0 19:10:27 10° SSW 19:15:51 49° WNW 19:21:13 10° N visible
29 Oct 6.6 04:07:02 10° NNE 04:11:17 22° ENE 04:15:34 10° ESE visible
29 Oct 5.1 17:21:48 10° SE 17:26:09 24° E 17:30:30 10° NE visible
29 Oct 5.0 19:03:44 10° SSW 19:09:06 48° WNW 19:14:28 10° N visible
30 Oct 6.6 04:00:15 10° NNE 04:04:34 22° ENE 04:08:53 10° ESE visible
30 Oct 5.1 17:15:01 10° SE 17:19:24 24° E 17:23:47 10° NE visible
30 Oct 5.1 18:57:01 10° SSW 19:02:22 47° WNW 19:07:43 10° N visible
31 Oct 6.6 03:53:29 10° NNE 03:57:50 23° ENE 04:02:12 10° ESE visible
31 Oct 5.1 17:08:13 10° SE 17:12:39 25° E 17:17:03 10° NE visible
31 Oct 5.1 18:50:18 10° SSW 18:55:38 46° WNW 19:00:57 10° N visible
01 Nov 6.5 03:46:42 10° NNE 03:51:06 23° ENE 03:55:31 10° ESE visible
01 Nov 5.1 17:01:26 10° SE 17:05:54 25° E 17:10:21 10° NE visible
01 Nov 5.2 18:43:35 10° SSW 18:48:54 45° WNW 18:54:12 10° N visible
02 Nov 6.5 03:39:55 10° NNE 03:44:23 24° ENE 03:48:51 10° ESE visible
02 Nov 4.4 05:22:35 10° NNW 05:27:59 52° W 05:33:26 10° S visible
02 Nov 5.1 16:54:39 10° SE 16:59:08 26° E 17:03:36 10° NE visible
02 Nov 5.2 18:36:52 10° SW 18:42:09 44° WNW 18:47:26 10° N visible
03 Nov 6.4 03:33:09 10° NNE 03:37:39 24° ENE 03:42:10 10° ESE visible
03 Nov 4.4 05:15:51 10° NNW 05:21:13 51° W 05:26:41 10° SSW visible
03 Nov 5.1 16:47:52 10° SE 16:52:23 26° E 16:56:53 10° NNE visible
03 Nov 5.3 18:30:10 10° SW 18:35:25 43° WNW 18:40:41 10° N visible
04 Nov 6.4 03:26:23 10° NNE 03:30:55 25° ENE 03:35:29 10° ESE visible
04 Nov 4.4 05:09:06 10° NNW 05:14:29 50° W 05:19:56 10° SSW visible
04 Nov 5.1 16:41:05 10° SE 16:45:38 27° E 16:50:11 10° NNE visible
04 Nov 5.3 18:23:27 10° SW 18:28:41 42° WNW 18:33:56 10° N visible
05 Nov 6.3 03:19:36 10° NNE 03:24:12 25° ENE 03:28:48 10° ESE visible
05 Nov 4.4 05:02:22 10° NNW 05:07:45 49° W 05:13:11 10° SSW visible
05 Nov 5.0 16:34:18 10° SE 16:38:52 27° E 16:43:27 10° NNE visible
05 Nov 5.4 18:16:44 10° SW 18:21:57 42° WNW 18:27:10 10° N visible
06 Nov 6.3 03:12:49 10° NNE 03:17:27 26° ENE 03:22:07 10° ESE visible
06 Nov 4.4 04:55:37 10° NNW 05:01:00 48° W 05:06:26 10° SSW visible
06 Nov 5.0 16:27:31 10° SE 16:32:07 28° E 16:36:43 10° NNE visible
06 Nov 5.4 18:10:01 10° SW 18:15:12 41° WNW 18:20:25 10° N visible
